Date String (YYYY-MM-DD hh:mm:ss) UTC,Instrument flags,Ambient pressure (hPa),Sample flow (lpm),Bypass flow (lpm),Sample temperature (°C),Ambient temperature (°C),ASC tube jacket temperature (°C),LED temperature (°C),Box temperature (°C),Sample RH (%),Span deviation,Mass concentration (μg/m³),Mass concentration (μg/m³),Mass concentration (μg/m³)
DateTimeUTC,F1_M11,P_M11,Q1_M11,Q2_M11,T1_M11,T2_M11,T3_M11,T4_M11,T5_M11,U1_M11,ZSPAN_M11,X2_M11,X0_M11,X1_M11
2022-09-05 16:00:00,,0828.7,4.99,0.00,29.8,27.5,00.0,38.5,31.6,19.8,0000.0,0007.44,0017.60,0006.27
2022-09-05 16:01:00,,0828.7,5.00,0.00,29.8,27.8,00.0,38.5,31.6,20.0,0000.0,0007.50,0017.50,0006.30
2022-09-05 16:02:00,,0829.1,5.00,0.00,29.8,28.1,00.0,38.5,31.7,20.2,0000.0,0007.56,0017.20,0006.33
2022-09-05 16:03:00,,0829.0,5.00,0.00,29.8,28.3,00.0,38.5,31.7,19.8,0000.0,0007.57,0016.68,0006.37
2022-09-05 16:04:00,,0829.1,5.01,0.00,29.9,28.5,00.0,38.6,31.7,19.7,0000.0,0007.57,0017.34,0006.38
2022-09-05 16:05:00,,0828.9,5.01,0.00,29.9,28.4,00.0,38.6,31.8,19.4,0000.0,0007.51,0016.99,0006.37
2022-09-05 16:06:00,,0829.0,4.98,0.00,29.9,27.4,00.0,38.6,31.6,19.5,0000.0,0007.41,0016.69,0006.34
2022-09-05 16:07:00,,0829.0,5.00,0.00,29.8,26.8,00.0,38.5,31.5,19.4,0000.0,0007.36,0016.32,0006.33
2022-09-05 16:08:00,,0829.0,5.01,0.00,29.8,27.1,00.0,38.5,31.6,19.2,0000.0,0007.33,0016.00,0006.33
2022-09-05 16:09:00,,0829.2,4.99,0.00,29.7,27.3,00.0,38.4,31.4,19.0,0000.0,0007.30,0015.69,0006.32
2022-09-05 16:10:00,,0829.2,5.01,0.00,29.7,27.6,00.0,38.4,31.5,18.8,0000.0,0007.24,0016.24,0006.29
2022-09-05 16:11:00,,0829.1,5.00,0.00,29.7,27.9,00.0,38.5,31.5,19.1,0000.0,0007.23,0016.36,0006.27
2022-09-05 16:12:00,,0829.1,5.00,0.00,29.8,28.1,00.0,38.5,31.6,18.9,0000.0,0007.22,0016.30,0006.25
2022-09-05 16:13:00,,0828.9,5.00,0.00,29.8,28.4,00.0,38.5,31.7,18.4,0000.0,0007.17,0016.23,0006.23
2022-09-05 16:14:00,,0828.9,5.01,0.00,29.8,28.5,00.0,38.5,31.7,17.9,0000.0,0007.15,0016.08,0006.18
2022-09-05 16:15:00,,0828.6,4.99,0.00,29.8,28.0,00.0,38.5,31.7,18.1,0000.0,0007.17,0015.14,0006.14
2022-09-05 16:16:00,,0828.9,4.98,0.00,29.8,27.0,00.0,38.5,31.5,18.1,0000.0,0007.15,0014.73,0006.10
2022-09-05 16:17:00,,0829.2,5.01,0.00,29.7,26.9,00.0,38.4,31.5,18.4,0000.0,0007.17,0014.37,0006.07
2022-09-05 16:18:00,,0829.2,5.00,0.00,29.7,27.2,00.0,38.4,31.5,19.0,0000.0,0007.14,0013.87,0006.06
2022-09-05 16:19:00,,0829.1,4.98,0.00,29.7,27.4,00.0,38.4,31.4,18.6,0000.0,0007.17,0014.29,0006.03
2022-09-05 16:20:00,,0829.0,5.01,0.00,29.7,27.7,00.0,38.4,31.4,18.7,0000.0,0007.15,0014.49,0006.01
2022-09-05 16:21:00,,0829.2,5.00,0.00,29.7,28.0,00.0,38.4,31.5,19.0,0000.0,0007.11,0013.52,0005.99
2022-09-05 16:22:00,,0829.0,5.00,0.00,29.7,28.2,00.0,38.4,31.6,19.2,0000.0,0007.07,0012.84,0005.98
2022-09-05 16:23:00,,0828.9,4.98,0.00,29.8,28.4,00.0,38.4,31.6,18.4,0000.0,0007.06,0013.09,0005.96
2022-09-05 16:24:00,,0829.2,5.00,0.00,29.8,28.0,00.0,38.4,31.7,18.5,0000.0,0007.08,0013.83,0005.95
2022-09-05 16:25:00,,0829.1,5.02,0.00,29.7,27.0,00.0,38.4,31.5,18.4,0000.0,0007.04,0014.04,0005.96
2022-09-05 16:26:00,,0829.2,4.99,0.00,29.7,26.9,00.0,38.4,31.5,18.6,0000.0,0007.04,0014.11,0005.98
2022-09-05 16:27:00,,0829.2,4.99,0.00,29.7,27.2,00.0,38.3,31.5,18.8,0000.0,0007.07,0014.40,0006.01
2022-09-05 16:28:00,,0829.2,5.00,0.00,29.6,27.4,00.0,38.3,31.4,18.4,0000.0,0007.03,0014.42,0006.01
2022-09-05 16:29:00,,0829.2,5.01,0.00,29.6,27.7,00.0,38.3,31.4,17.8,0000.0,0006.98,0014.60,0005.98
2022-09-05 16:30:00,,0829.2,5.00,0.00,29.7,28.0,00.0,38.3,31.5,17.3,0000.0,0006.92,0014.30,0005.95
2022-09-05 16:31:00,,0828.9,5.00,0.00,29.7,28.2,00.0,38.3,31.5,17.1,0000.0,0006.93,0015.23,0005.92
2022-09-05 16:32:00,,0828.7,5.01,0.00,29.7,28.4,00.0,38.4,31.6,16.9,0000.0,0006.91,0015.40,0005.89
2022-09-05 16:33:00,,0828.8,5.00,0.00,29.7,28.0,00.0,38.4,31.6,16.5,0000.0,0006.89,0015.52,0005.85
2022-09-05 16:34:00,,0829.1,4.98,0.00,29.7,26.9,00.0,38.4,31.5,16.6,0000.0,0006.82,0015.84,0005.81
2022-09-05 16:35:00,,0829.1,5.01,0.00,29.7,26.8,00.0,38.3,31.5,17.0,0000.0,0006.77,0015.29,0005.77
2022-09-05 16:36:00,,0828.8,4.99,0.00,29.6,27.1,00.0,38.3,31.4,16.9,0000.0,0006.79,0015.51,0005.73
2022-09-05 16:37:00,,0829.0,5.01,0.00,29.6,27.4,00.0,38.3,31.4,17.2,0000.0,0006.73,0015.41,0005.69
2022-09-05 16:38:00,,0828.7,5.00,0.00,29.6,27.7,00.0,38.3,31.4,17.5,0000.0,0006.65,0015.67,0005.64
2022-09-05 16:39:00,,0828.7,5.00,0.00,29.6,27.9,00.0,38.3,31.4,17.7,0000.0,0006.65,0015.71,0005.61
2022-09-05 16:40:00,,0828.7,5.00,0.00,29.6,28.1,00.0,38.3,31.5,17.5,0000.0,0006.67,0015.58,0005.60
2022-09-05 16:41:00,,0828.7,5.01,0.00,29.7,28.3,00.0,38.3,31.5,17.4,0000.0,0006.69,0016.20,0005.60
2022-09-05 16:42:00,,0828.7,4.98,0.00,29.7,28.0,00.0,38.3,31.6,17.2,0000.0,0006.66,0015.71,0005.59
2022-09-05 16:43:00,,0828.7,5.01,0.00,29.7,27.0,00.0,38.3,31.5,17.5,0000.0,0006.61,0015.04,0005.58
2022-09-05 16:44:00,,0828.7,4.99,0.00,29.6,26.8,00.0,38.3,31.4,17.3,0000.0,0006.59,0015.11,0005.57
2022-09-05 16:45:00,,0828.7,4.99,0.00,29.6,27.2,00.0,38.3,31.4,17.3,0000.0,0006.59,0015.04,0005.58
2022-09-05 16:46:00,,0828.7,5.01,0.00,29.6,27.4,00.0,38.3,31.4,17.5,0000.0,0006.57,0014.66,0005.58
2022-09-05 16:47:00,,0828.7,5.00,0.00,29.6,27.7,00.0,38.3,31.4,17.3,0000.0,0006.52,0014.24,0005.56
2022-09-05 16:48:00,,0828.7,5.01,0.00,29.6,27.9,00.0,38.3,31.4,17.2,0000.0,0006.52,0014.43,0005.55
2022-09-05 16:49:00,,0828.7,5.01,0.00,29.6,28.1,00.0,38.3,31.5,16.7,0000.0,0006.54,0015.08,0005.53
2022-09-05 16:50:00,,0828.7,4.99,0.00,29.7,28.3,00.0,38.3,31.6,16.4,0000.0,0006.53,0014.79,0005.51
2022-09-05 16:51:00,,0828.8,5.00,0.00,29.7,28.1,00.0,38.3,31.6,16.3,0000.0,0006.51,0015.00,0005.47
2022-09-05 16:52:00,,0828.8,5.01,0.00,29.7,27.1,00.0,38.3,31.5,16.4,0000.0,0006.47,0014.78,0005.43
2022-09-05 16:53:00,,0829.3,4.99,0.00,29.6,26.8,00.0,38.3,31.4,15.9,0000.0,0006.40,0014.43,0005.40
2022-09-05 16:54:00,,0829.3,5.01,0.00,29.6,27.1,00.0,38.3,31.4,15.9,0000.0,0006.40,0014.38,0005.37
2022-09-05 16:55:00,,0829.3,4.99,0.00,29.6,27.3,00.0,38.2,31.3,15.6,0000.0,0006.44,0015.27,0005.35
2022-09-05 16:56:00,,0829.4,5.00,0.00,29.6,27.6,00.0,38.2,31.3,15.2,0000.0,0006.43,0015.66,0005.31
2022-09-05 16:57:00,,0829.3,5.00,0.00,29.6,27.9,00.0,38.2,31.4,15.1,0000.0,0006.47,0015.76,0005.28
2022-09-05 16:58:00,,0829.4,5.01,0.00,29.6,28.1,00.0,38.3,31.5,15.6,0000.0,0006.44,0015.91,0005.25
2022-09-05 16:59:00,,0829.3,5.00,0.00,29.6,28.3,00.0,38.3,31.5,15.6,0000.0,0006.39,0015.29,0005.24
